Content
SEND FEEDBACK

Daily
Averages
Monthly
Summary
United States of America

JOURDANTON, TEXAS


Home > North America > United States > Texas
Elevation: 490 feet     Latitude: 28 55N     Longitude: 098 33W

WEATHER
 
SELECT A DAY
Number of Records: 176,028;   Date Range: 1/23/07 - 8/12/14
 
SHARE

PRINT THIS DATA

[ ← Previous Day ]
WEATHER ALMANAC - JANUARY 31, 2013
[ Next Day → ]
[ °C ]   °F
Weather ElementAverageHighLow
Temperature51 °F70.2 °F (3:15 pm)31.6 °F (3:55 am)
Dewpoint15.1 °F30.2 °F (11:55 pm)-1.7 °F (1:55 pm)
Humidity33.4 %70 % (3:55 am)6 % (1:55 pm)
Barometer30.26 in30.34 in (10:55 am)30.20 in (3:55 pm)
Wind Speed3.4 mph10.4 mph (10:35 am)
Wind Gust20.7 mph (2:55 pm)
Weather ElementAverage
Visibility9.1 mi
Wind DirectionESE (120.4 °)

Weather ElementTotal
Precipitation---
Heating Degree Days14.1 (Base 65)
Growing Degree Days0.9 (Base 50)
Averaged from 71 records on January 31, 2013
WEATHER CONDITIONS BREAKOUT
WIND DIRECTION BREAKOUT
WEATHER BY HOUR - JANUARY 31, 2013
[ °C ]   °F
Local TimeTemperatureDewpointHumidityBarometerVisibilityWind DirectionWind SpeedGust SpeedPrecipitationEventsConditions
12:35 AM37.0 °F21.9 °F54 %30.24 in10.0 miCalmClear
12:55 AM35.6 °F23.5 °F62 %30.24 in10.0 miCalmClear
1:15 AM35.6 °F25.0 °F65 %30.24 in10.0 miCalmClear
1:35 AM34.9 °F25.3 °F68 %30.25 in10.0 miCalmClear
1:55 AM35.6 °F24.6 °F64 %30.25 in10.0 miCalmClear
2:15 AM36.3 °F22.3 °F57 %30.24 in10.0 miCalmClear
2:35 AM37.2 °F20.7 °F51 %30.24 in10.0 miCalmClear
2:55 AM37.4 °F18.9 °F47 %30.24 in10.0 miCalmClear
3:15 AM36.9 °F19.2 °F49 %30.24 in10.0 miCalmClear
3:35 AM32.5 °F20.5 °F61 %30.24 in10.0 miCalmClear
3:55 AM31.6 °F22.8 °F70 %30.25 in10.0 miNW (310°)3.5 mphClear
4:15 AM33.4 °F23.0 °F66 %30.26 in10.0 miCalmClear
4:35 AM33.1 °F22.1 °F64 %30.26 in10.0 miWNW (300°)3.5 mphClear
4:55 AM33.3 °F22.6 °F65 %30.26 in10.0 miWNW (300°)4.6 mphClear
5:15 AM34.0 °F20.7 °F58 %30.26 in10.0 miWNW (300°)3.5 mphClear
5:35 AM33.6 °F20.7 °F59 %30.25 in10.0 miCalmClear
5:55 AM33.8 °F21.2 °F60 %30.26 in10.0 miWNW (300°)3.5 mphClear
6:15 AM32.9 °F22.6 °F66 %30.27 in10.0 miCalmClear
6:35 AM34.0 °F22.1 °F62 %30.27 in10.0 miWNW (290°)3.5 mphClear
6:55 AM34.5 °F21.4 °F59 %30.28 in10.0 miWNW (290°)3.5 mphClear
7:15 AM34.7 °F21.9 °F60 %30.29 in10.0 miCalmClear
7:35 AM34.2 °F22.1 °F61 %30.29 in10.0 miWNW (300°)3.5 mphClear
7:55 AM35.6 °F21.6 °F57 %30.29 in10.0 miCalmClear
8:15 AM38.3 °F21.4 °F51 %30.30 in10.0 miWNW (290°)3.5 mphClear
8:35 AM41.5 °F23.4 °F49 %30.31 in10.0 miCalmClear
8:55 AM45.1 °F20.7 °F38 %30.32 in10.0 miCalmClear
9:15 AM49.8 °F16.9 °F27 %30.31 in10.0 miCalmClear
9:35 AM54.0 °F12.0 °F19 %30.31 in10.0 miSSW (200°)5.8 mphClear
9:55 AM55.9 °F12.2 °F18 %30.32 in10.0 miSSW (200°)6.9 mphClear
10:15 AM58.3 °F11.1 °F16 %30.33 in10.0 miSouth (190°)5.8 mphClear
10:35 AM59.7 °F5.9 °F12 %30.33 in7.0 miSSW (200°)10.4 mphClear
10:55 AM61.3 °F4.8 °F11 %30.34 in7.0 miSSW (200°)8.1 mphClear
11:15 AM62.2 °F4.5 °F10 %30.34 in7.0 miSouth (180°)10.4 mphClear
11:35 AM63.3 °F3.4 °F9 %30.32 in7.0 miSW (220°)8.1 mphClear
11:55 AM64.9 °F1.6 °F8 %30.32 in7.0 miWSW (240°)8.1 mphClear
12:15 PM65.1 °F0.5 °F8 %30.31 in7.0 miSSW (200°)5.8 mphClear
12:35 PM66.0 °F-0.6 °F7 %30.30 in7.0 miSSW (200°)6.9 mphClear
12:55 PM66.2 °F-1.5 °F7 %30.29 in7.0 miSW (230°)8.1 mphClear
1:15 PM67.3 °F0.1 °F7 %30.27 in7.0 miSSW (210°)4.6 mphClear
1:35 PM68.4 °F0.0 °F7 %30.26 in10.0 miSouth (190°)4.6 mphClear
1:55 PM68.7 °F-1.7 °F6 %30.24 in7.0 miSouth (190°)5.8 mphClear
2:15 PM69.1 °F0.0 °F6 %30.23 in7.0 miSSW (200°)8.1 mphClear
2:35 PM69.1 °F-0.4 °F6 %30.22 in7.0 miSouth (190°)8.1 mphClear
2:55 PM69.6 °F-0.6 °F6 %30.22 in7.0 miSW (220°)8.1 mph20.7 mphClear
3:15 PM70.2 °F0.1 °F6 %30.21 in10.0 miSW (220°)5.8 mphClear
3:35 PM70.0 °F0.3 °F6 %30.21 in7.0 miSW (220°)10.4 mphClear
3:55 PM69.6 °F0.7 °F7 %30.20 in7.0 miSouth (180°)5.8 mphClear
4:15 PM70.0 °F0.1 °F6 %30.20 in7.0 miCalmClear
4:35 PM69.8 °F1.6 °F7 %30.20 in10.0 miSouth (170°)4.6 mphClear
4:55 PM69.1 °F1.6 °F7 %30.21 in10.0 miSSW (210°)8.1 mphClear
5:15 PM68.0 °F3.0 °F8 %30.20 in7.0 miSouth (180°)8.1 mphClear
5:35 PM65.5 °F4.6 °F9 %30.20 in7.0 miSSE (160°)5.8 mphClear
5:55 PM62.8 °F6.6 °F11 %30.20 in7.0 miSSE (150°)3.5 mphClear
6:15 PM61.7 °F7.9 °F12 %30.21 in7.0 miCalmClear
6:35 PM57.0 °F15.8 °F20 %30.22 in7.0 miCalmClear
6:55 PM54.9 °F18.5 °F24 %30.22 in10.0 miCalmClear
7:15 PM53.6 °F21.0 °F28 %30.23 in7.0 miCalmClear
7:35 PM54.0 °F19.8 °F26 %30.24 in10.0 miCalmClear
7:55 PM50.5 °F20.5 °F31 %30.25 in10.0 miCalmClear
8:15 PM49.8 °F21.2 °F32 %30.25 in10.0 miCalmClear
8:35 PM48.9 °F19.9 °F32 %30.27 in10.0 miCalmClear
8:55 PM53.8 °F21.0 °F28 %30.28 in10.0 miESE (120°)5.8 mphClear
9:15 PM54.1 °F23.0 °F30 %30.28 in10.0 miESE (120°)4.6 mphClear
9:35 PM53.6 °F23.9 °F32 %30.29 in10.0 miESE (110°)5.8 mphClear
9:55 PM52.2 °F25.2 °F35 %30.29 in10.0 miESE (110°)3.5 mphClear
10:15 PM51.4 °F26.8 °F38 %30.29 in10.0 miSE (130°)3.5 mphClear
10:35 PM51.1 °F27.7 °F40 %30.29 in10.0 miEast (100°)3.5 mphClear
10:55 PM51.1 °F28.4 °F42 %30.30 in10.0 miCalmClear
11:15 PM50.2 °F29.1 °F44 %30.30 in10.0 miESE (110°)3.5 mphClear
11:35 PM49.6 °F30.0 °F47 %30.29 in10.0 miESE (120°)3.5 mphClear
11:55 PM49.1 °F30.2 °F48 %30.29 in10.0 miCalmClear
Hourly data recorded from KPEZ, located miles away from Jourdanton, Texas







STORIES FROM OUR PARTNERS